SR9WXP Weather Reports


time (UTC)temp
C
wind
direction
speed
KPH
gust
KPH
rain 1hr
cm
rain 24hr
cm
rain mn
cm
humidity
%
barometer
mb
20260905195551 8 256 29.0 48.3 0.00 0.00 0.00 31 859.9
20260905195449 8 261 25.7 33.8 0.00 0.00 0.00 31 859.9
20260905195351 8 264 25.7 40.2 0.00 0.00 0.00 31 859.9
20260905195150 8 260 25.7 40.2 0.00 0.00 0.00 31 859.9
20260905194946 8 258 27.4 35.4 0.00 0.00 0.00 31 859.9
20260905194747 8 260 25.7 35.4 0.00 0.00 0.00 31 859.9
20260905194548 8 266 24.1 33.8 0.00 0.00 0.00 31 860.0
20260905194446 8 270 24.1 30.6 0.00 0.00 0.00 31 860.0
20260905194348 8 270 25.7 33.8 0.00 0.00 0.00 31 860.0
20260905194147 8 268 27.4 37.0 0.00 0.00 0.00 31 859.9
20260905193944 8 261 29.0 35.4 0.00 0.00 0.00 31 860.0
20260905193746 8 266 29.0 41.8 0.00 0.00 0.00 31 860.0
20260905193546 8 270 27.4 41.8 0.00 0.00 0.00 31 859.8
20260905193444 8 273 27.4 40.2 0.00 0.00 0.00 31 859.8
20260905193345 8 272 29.0 40.2 0.00 0.00 0.00 31 859.8
20260905193145 8 266 29.0 43.5 0.00 0.00 0.00 31 859.8
20260905192927 8 262 25.7 33.8 0.00 0.00 0.00 31 859.9
20260905192728 8 269 29.0 40.2 0.00 0.00 0.00 31 859.9
20260905192528 8 267 32.2 41.8 0.00 0.00 0.00 31 859.9
20260905192427 8 268 30.6 41.8 0.00 0.00 0.00 31 859.9
20260905192328 8 265 32.2 41.8 0.00 0.00 0.00 31 859.9
20260905192128 8 261 27.4 38.6 0.00 0.00 0.00 31 859.9
20260905191924 8 272 25.7 38.6 0.00 0.00 0.00 31 859.9
20260905191726 8 274 25.7 35.4 0.00 0.00 0.00 31 859.9
20260905191526 8 263 29.0 38.6 0.00 0.00 0.00 31 859.9
20260905191424 8 264 27.4 38.6 0.00 0.00 0.00 31 859.9
20260905191326 8 268 25.7 35.4 0.00 0.00 0.00 31 859.8
20260905191125 8 274 29.0 38.6 0.00 0.00 0.00 31 859.7
20260905190921 8 270 30.6 38.6 0.00 0.00 0.00 31 859.7
20260905190723 8 266 32.2 48.3 0.00 0.00 0.00 31 859.7
20260905190524 8 266 29.0 48.3 0.00 0.00 0.00 31 859.8
20260905190421 8 266 29.0 41.8 0.00 0.00 0.00 31 859.8
20260905190323 8 262 30.6 41.8 0.00 0.00 0.00 31 859.8
20260905190122 8 270 29.0 40.2 0.00 0.00 0.00 31 859.7
20260905185918 8 266 32.2 45.1 0.00 0.00 0.00 31 859.7
20260905185720 8 263 32.2 48.3 0.00 0.00 0.00 31 859.7
20260905185520 8 253 32.2 48.3 0.00 0.00 0.00 31 859.7
20260905185418 8 249 35.4 48.3 0.00 0.00 0.00 31 859.6
20260905185119 8 264 32.2 49.9 0.00 0.00 0.00 31 859.5
20260905184916 8 268 29.0 41.8 0.00 0.00 0.00 31 859.5
20260905184716 8 274 29.0 37.0 0.00 0.00 0.00 31 859.5
20260905184516 8 265 33.8 41.8 0.00 0.00 0.00 31 859.6
20260905184415 8 264 33.8 41.8 0.00 0.00 0.00 31 859.6
20260905184316 8 263 32.2 41.8 0.00 0.00 0.00 31 859.7
20260905184115 8 272 29.0 37.0 0.00 0.00 0.00 31 859.7
20260905183911 8 270 27.4 38.6 0.00 0.00 0.00 31 859.7
20260905183712 8 257 29.0 41.8 0.00 0.00 0.00 31 859.6
20260905183513 8 261 30.6 46.7 0.00 0.00 0.00 31 859.6
20260905183411 8 265 32.2 46.7 0.00 0.00 0.00 31 859.5
20260905183312 8 264 32.2 46.7 0.00 0.00 0.00 31 859.5
20260905183112 8 270 29.0 43.5 0.00 0.00 0.00 31 859.5
20260905182907 8 270 27.4 38.6 0.00 0.00 0.00 31 859.5
20260905182708 8 263 33.8 49.9 0.00 0.00 0.00 31 859.4
20260905182509 8 264 35.4 48.3 0.00 0.00 0.00 31 859.3
20260905182407 8 269 35.4 48.3 0.00 0.00 0.00 31 859.3
20260905182308 8 268 33.8 46.7 0.00 0.00 0.00 31 859.3
20260905182108 8 265 32.2 46.7 0.00 0.00 0.00 31 859.6
20260905181904 8 263 29.0 40.2 0.00 0.00 0.00 31 859.6
20260905181705 8 267 25.7 33.8 0.00 0.00 0.00 31 859.5
20260905181505 8 262 29.0 37.0 0.00 0.00 0.00 31 859.4
20260905181404 8 258 30.6 49.9 0.00 0.00 0.00 31 859.4
20260905181306 8 255 32.2 49.9 0.00 0.00 0.00 31 859.5
20260905181105 8 259 33.8 48.3 0.00 0.00 0.00 31 859.5
20260905180901 8 267 30.6 48.3 0.00 0.00 0.00 31 859.5
20260905180703 8 268 27.4 38.6 0.00 0.00 0.00 31 859.3
20260905180504 8 260 30.6 38.6 0.00 0.00 0.00 31 859.3
20260905180403 8 259 29.0 37.0 0.00 0.00 0.00 31 859.3
20260905180302 8 258 25.7 35.4 0.00 0.00 0.00 31 859.4
20260905175859 8 259 29.0 40.2 0.00 0.00 0.00 31 859.2
20260905175700 8 264 30.6 38.6 0.00 0.00 0.00 31 859.2
20260905175459 8 264 27.4 38.6 0.00 0.00 0.00 31 859.3
20260905175359 8 265 27.4 38.6 0.00 0.00 0.00 31 859.3
20260905175259 8 269 25.7 32.2 0.00 0.00 0.00 31 859.3
20260905175100 8 266 29.0 43.5 0.00 0.00 0.00 31 859.3
20260905175022 8 257 29.0 43.5 0.00 0.00 0.00 31 859.3
20260905174855 8 257 29.0 43.5 0.00 0.00 0.00 31 859.3
20260905174456 8 262 22.5 30.6 0.00 0.00 0.00 31 859.4
20260905174355 8 261 24.1 35.4 0.00 0.00 0.00 31 859.4
20260905174256 8 261 25.7 35.4 0.00 0.00 0.00 31 859.3
20260905173937 8 260 24.1 33.8 0.00 0.00 0.00 31 859.3
20260905173852 8 260 24.1 33.8 0.00 0.00 0.00 31 859.3
20260905173653 8 270 24.1 35.4 0.00 0.00 0.00 31 859.3
20260905173453 8 261 27.4 38.6 0.00 0.00 0.00 31 859.2
20260905173352 8 256 29.0 38.6 0.00 0.00 0.00 31 859.2
20260905173254 8 260 25.7 37.0 0.00 0.00 0.00 31 859.2
20260905173054 8 262 24.1 32.2 0.00 0.00 0.00 31 859.3
20260905172849 8 261 24.1 32.2 0.00 0.00 0.00 31 859.3
20260905172651 8 263 27.4 43.5 0.00 0.00 0.00 31 859.2
20260905172349 8 251 30.6 45.1 0.00 0.00 0.00 31 859.1
20260905172251 8 258 30.6 45.1 0.00 0.00 0.00 31 859.2
20260905172051 8 269 24.1 40.2 0.00 0.00 0.00 31 859.2
20260905171846 8 265 25.7 41.8 0.00 0.00 0.00 31 859.1
20260905171448 8 245 24.1 40.2 0.00 0.00 0.00 31 859.1
20260905171347 8 245 25.7 40.2 0.00 0.00 0.00 31 859.2
20260905171248 8 253 24.1 40.2 0.00 0.00 0.00 31 859.2
20260905171048 8 266 24.1 33.8 0.00 0.00 0.00 31 859.2
20260905170843 8 265 24.1 33.8 0.00 0.00 0.00 31 859.2
20260905170641 8 255 27.4 43.5 0.00 0.00 0.00 31 859.1
20260905170441 8 253 29.0 41.8 0.00 0.00 0.00 31 859.1
20260905170340 8 254 30.6 41.8 0.00 0.00 0.00 31 859.1
20260905170241 8 255 32.2 41.8 0.00 0.00 0.00 31 859.1
20260905170040 8 259 27.4 35.4 0.00 0.00 0.00 31 858.9
20260905165837 8 259 25.7 33.8 0.00 0.00 0.00 31 858.9
20260905165639 9 251 27.4 40.2 0.00 0.00 0.00 31 858.9
20260905165438 9 258 27.4 41.8 0.00 0.00 0.00 31 858.9
20260905165324 9 263 24.1 41.8 0.00 0.00 0.00 31 858.9
20260905165225 9 258 24.1 41.8 0.00 0.00 0.00 31 858.8
20260905165024 9 255 22.5 29.0 0.00 0.00 0.00 31 858.8
20260905164821 9 244 24.1 33.8 0.00 0.00 0.00 31 858.8
20260905164622 9 247 25.7 38.6 0.00 0.00 0.00 31 858.8
20260905164421 9 248 30.6 43.5 0.00 0.00 0.00 31 858.8
20260905164321 9 245 29.0 43.5 0.00 0.00 0.00 31 858.8
20260905164221 9 255 27.4 43.5 0.00 0.00 0.00 31 858.7
20260905163818 9 253 22.5 29.0 0.00 0.00 0.00 31 858.7
20260905163619 9 251 24.1 37.0 0.00 0.00 0.00 31 858.6
20260905163419 9 257 27.4 37.0 0.00 0.00 0.00 31 858.6
20260905163318 9 256 27.4 41.8 0.00 0.00 0.00 31 858.6
20260905163218 9 246 29.0 41.8 0.00 0.00 0.00 31 858.6
20260905163018 9 255 27.4 37.0 0.00 0.00 0.00 31 858.6
20260905162815 9 271 25.7 38.6 0.00 0.00 0.00 31 858.6
20260905162615 9 256 24.1 38.6 0.00 0.00 0.00 31 858.7
20260905162416 9 260 20.9 30.6 0.00 0.00 0.00 31 858.7
20260905162315 9 252 20.9 30.6 0.00 0.00 0.00 31 858.7
20260905161812 9 247 20.9 32.2 0.00 0.00 0.00 31 858.6
20260905161613 9 248 22.5 38.6 0.00 0.00 0.00 31 858.6
20260905161311 9 251 24.1 35.4 0.00 0.00 0.00 31 858.5
20260905161012 9 261 20.9 27.4 0.00 0.00 0.00 31 858.5
20260905160808 9 250 24.1 37.0 0.00 0.00 0.00 31 858.6
20260905160609 9 251 22.5 32.2 0.00 0.00 0.00 31 858.5
20260905160308 9 244 27.4 38.6 0.00 0.00 0.00 31 858.4
20260905155805 10 241 27.4 40.2 0.00 0.00 0.00 31 858.5
20260905155407 10 250 27.4 41.8 0.00 0.00 0.00 31 858.4
20260905155306 10 257 25.7 41.8 0.00 0.00 0.00 31 858.3
20260905154802 10 256 22.5 32.2 0.00 0.00 0.00 31 858.1
20260905154604 10 256 22.5 32.2 0.00 0.00 0.00 31 858.1
20260905154302 10 245 24.1 38.6 0.00 0.00 0.00 31 858.2
20260905154204 10 246 24.1 32.2 0.00 0.00 0.00 31 858.2
20260905153759 10 242 22.5 33.8 0.00 0.00 0.00 31 858.4
20260905153601 10 253 24.1 32.2 0.00 0.00 0.00 31 858.3
20260905153401 10 256 25.7 33.8 0.00 0.00 0.00 31 858.2
20260905153259 11 260 22.5 33.8 0.00 0.00 0.00 31 858.2
20260905153201 11 266 20.9 32.2 0.00 0.00 0.00 31 858.2
20260905153000 11 263 22.5 40.2 0.00 0.00 0.00 31 858.2
20260905152756 11 259 22.5 41.8 0.00 0.00 0.00 31 858.2
20260905152557 11 250 27.4 43.5 0.00 0.00 0.00 31 858.2
20260905152357 10 251 24.1 35.4 0.00 0.00 0.00 31 858.2
20260905152256 10 248 25.7 33.8 0.00 0.00 0.00 31 858.2
20260905152157 10 251 25.7 33.8 0.00 0.00 0.00 31 858.2
20260905151956 11 262 20.9 29.0 0.00 0.00 0.00 31 858.1
20260905151753 11 248 24.1 37.0 0.00 0.00 0.00 31 858.1
20260905151554 11 244 25.7 37.0 0.00 0.00 0.00 31 858.1
20260905151354 11 245 22.5 30.6 0.00 0.00 0.00 31 858.1
20260905151253 11 247 20.9 32.2 0.00 0.00 0.00 31 858.1
20260905151155 11 254 20.9 32.2 0.00 0.00 0.00 31 858.1
20260905150954 11 248 25.7 35.4 0.00 0.00 0.00 31 858.1
20260905150750 11 254 22.5 30.6 0.00 0.00 0.00 31 858.1
20260905150551 11 262 22.5 32.2 0.00 0.00 0.00 31 858.1
20260905150351 11 260 20.9 30.6 0.00 0.00 0.00 31 858.1
20260905150250 10 259 20.9 29.0 0.00 0.00 0.00 31 858.1
20260905150151 10 260 19.3 27.4 0.00 0.00 0.00 31 858.1
20260905145951 10 256 19.3 38.6 0.00 0.00 0.00 31 858.1
20260905145747 10 266 19.3 29.0 0.00 0.00 0.00 31 858.2
20260905145548 10 262 22.5 29.0 0.00 0.00 0.00 31 858.2
20260905145348 10 255 20.9 32.2 0.00 0.00 0.00 31 858.1
20260905145246 10 259 20.9 32.2 0.00 0.00 0.00 31 858.1
20260905145148 10 257 20.9 32.2 0.00 0.00 0.00 31 858.2
20260905144947 10 256 19.3 27.4 0.00 0.00 0.00 31 858.2
20260905144743 10 251 19.3 27.4 0.00 0.00 0.00 31 858.2
20260905144546 10 249 19.3 27.4 0.00 0.00 0.00 31 858.3
20260905144347 10 252 16.1 25.7 0.00 0.00 0.00 31 858.3
20260905144243 10 247 16.1 25.7 0.00 0.00 0.00 31 858.3
20260905144148 10 246 17.7 30.6 0.00 0.00 0.00 31 858.3
20260905143946 10 248 19.3 35.4 0.00 0.00 0.00 31 858.4
20260905143740 10 255 24.1 35.4 0.00 0.00 0.00 31 858.2
20260905143541 11 250 24.1 33.8 0.00 0.00 0.00 31 858.1
20260905143341 11 249 22.5 30.6 0.00 0.00 0.00 31 858.2
20260905143240 11 259 19.3 29.0 0.00 0.00 0.00 31 858.2
20260905143140 11 262 20.9 29.0 0.00 0.00 0.00 31 858.2
20260905142940 11 262 20.9 30.6 0.00 0.00 0.00 31 858.3
20260905142736 11 261 17.7 29.0 0.00 0.00 0.00 31 858.2
20260905142537 11 252 19.3 29.0 0.00 0.00 0.00 31 858.2
20260905142337 11 263 17.7 27.4 0.00 0.00 0.00 31 858.2
20260905142236 11 261 17.7 27.4 0.00 0.00 0.00 31 858.2
20260905142138 11 253 19.3 27.4 0.00 0.00 0.00 31 858.2
20260905141721 11 251 19.3 29.0 0.00 0.00 0.00 31 858.2
20260905141519 11 269 17.7 29.0 0.00 0.00 0.00 31 858.3
20260905141319 11 274 16.1 24.1 0.00 0.00 0.00 31 858.3
20260905141218 11 268 17.7 24.1 0.00 0.00 0.00 31 858.3
20260905141119 10 270 19.3 25.7 0.00 0.00 0.00 31 858.4
20260905140919 10 279 17.7 30.6 0.00 0.00 0.00 31 858.4
20260905140715 10 274 20.9 30.6 0.00 0.00 0.00 31 858.4
20260905140518 10 262 25.7 37.0 0.00 0.00 0.00 31 858.3
20260905140317 11 258 29.0 45.1 0.00 0.00 0.00 31 858.3
20260905140215 11 253 27.4 45.1 0.00 0.00 0.00 31 858.3
20260905140117 11 262 24.1 35.4 0.00 0.00 0.00 31 858.3
20260905135918 11 265 20.9 33.8 0.00 0.00 0.00 31 858.3
20260905135712 11 260 19.3 27.4 0.00 0.00 0.00 31 858.3
20260905135513 11 259 19.3 27.4 0.00 0.00 0.00 31 858.2
20260905135313 11 267 19.3 32.2 0.00 0.00 0.00 31 858.3
20260905135212 11 268 19.3 32.2 0.00 0.00 0.00 31 858.3
20260905135113 11 269 19.3 29.0 0.00 0.00 0.00 31 858.3
20260905134913 11 272 17.7 29.0 0.00 0.00 0.00 31 858.4
20260905134709 10 273 17.7 29.0 0.00 0.00 0.00 31 858.4
20260905134511 10 290 14.5 20.9 0.00 0.00 0.00 31 858.5
20260905134310 10 270 12.9 22.5 0.00 0.00 0.00 31 858.6
20260905134209 10 252 14.5 22.5 0.00 0.00 0.00 31 858.5
20260905134110 10 252 12.9 22.5 0.00 0.00 0.00 31 858.5
20260905133910 10 256 11.3 17.7 0.00 0.00 0.00 31 858.5
20260905133706 10 263 12.9 24.1 0.00 0.00 0.00 31 858.5
20260905133507 10 269 12.9 16.1 0.00 0.00 0.00 31 858.5
20260905133307 10 266 14.5 20.9 0.00 0.00 0.00 31 858.5
20260905133206 10 254 16.1 24.1 0.00 0.00 0.00 31 858.5
20260905133107 10 246 19.3 27.4 0.00 0.00 0.00 31 858.6
20260905132907 10 244 19.3 27.4 0.00 0.00 0.00 31 858.6
20260905132703 10 259 14.5 22.5 0.00 0.00 0.00 31 858.6
20260905132504 10 257 16.1 22.5 0.00 0.00 0.00 31 858.5
20260905132203 11 245 17.7 25.7 0.00 0.00 0.00 31 858.5
20260905132104 11 245 17.7 29.0 0.00 0.00 0.00 31 858.5
20260905131903 11 256 16.1 29.0 0.00 0.00 0.00 31 858.5
20260905131700 11 262 20.9 33.8 0.00 0.00 0.00 31 858.5
20260905131501 11 250 22.5 35.4 0.00 0.00 0.00 31 858.4
20260905131300 11 269 14.5 20.9 0.00 0.00 0.00 31 858.5
20260905131200 11 268 14.5 19.3 0.00 0.00 0.00 31 858.5
20260905131100 11 256 16.1 25.7 0.00 0.00 0.00 31 858.5
20260905130900 11 258 17.7 27.4 0.00 0.00 0.00 31 858.5
20260905130657 11 262 19.3 29.0 0.00 0.00 0.00 31 858.5
20260905130458 10 277 19.3 35.4 0.00 0.00 0.00 31 858.5
20260905130259 10 276 16.1 20.9 0.00 0.00 0.00 31 858.7
20260905130157 10 279 16.1 20.9 0.00 0.00 0.00 31 858.7
20260905130058 11 276 17.7 27.4 0.00 0.00 0.00 31 858.8
20260905125859 11 270 22.5 32.2 0.00 0.00 0.00 31 858.6
20260905125654 11 261 20.9 30.6 0.00 0.00 0.00 31 858.2
20260905125459 11 263 19.3 25.7 0.00 0.00 0.00 31 858.0
20260905125258 10 265 17.7 25.7 0.00 0.00 0.00 31 858.0
20260905125154 10 249 19.3 25.7 0.00 0.00 0.00 31 858.0
20260905125055 10 256 17.7 25.7 0.00 0.00 0.00 31 858.0
20260905124855 10 254 20.9 29.0 0.00 0.00 0.00 31 857.9
20260905124651 10 255 19.3 29.0 0.00 0.00 0.00 31 857.9
20260905124452 10 247 20.9 29.0 0.00 0.00 0.00 31 857.9
20260905124252 10 248 19.3 29.0 0.00 0.00 0.00 31 857.9
20260905124151 10 250 19.3 29.0 0.00 0.00 0.00 31 857.9
20260905123852 10 249 22.5 30.6 0.00 0.00 0.00 31 858.0
20260905123648 10 258 19.3 25.7 0.00 0.00 0.00 31 858.1
20260905123451 10 248 17.7 27.4 0.00 0.00 0.00 31 858.1
20260905123250 10 259 16.1 22.5 0.00 0.00 0.00 31 858.2
20260905123148 10 264 17.7 27.4 0.00 0.00 0.00 31 858.3
20260905123048 10 252 20.9 40.2 0.00 0.00 0.00 31 858.4
20260905122849 10 247 20.9 40.2 0.00 0.00 0.00 31 858.4
20260905122645 10 253 20.9 32.2 0.00 0.00 0.00 31 858.3
20260905122447 11 257 17.7 32.2 0.00 0.00 0.00 31 858.3
20260905122247 11 262 14.5 22.5 0.00 0.00 0.00 31 858.3
20260905122145 11 269 14.5 22.5 0.00 0.00 0.00 31 858.3
20260905122046 11 261 14.5 22.5 0.00 0.00 0.00 31 858.2
20260905121846 11 238 19.3 30.6 0.00 0.00 0.00 31 858.2
20260905121642 10 244 19.3 30.6 0.00 0.00 0.00 31 858.3
20260905121444 10 244 19.3 29.0 0.00 0.00 0.00 31 858.3
20260905121244 10 241 22.5 29.0 0.00 0.00 0.00 31 858.3
20260905121142 10 241 22.5 32.2 0.00 0.00 0.00 31 858.3
20260905120842 10 249 20.9 30.6 0.00 0.00 0.00 31 858.3
20260905120639 10 256 19.3 27.4 0.00 0.00 0.00 31 858.2
20260905120440 10 244 19.3 27.4 0.00 0.00 0.00 31 858.1
20260905120240 10 264 16.1 25.7 0.00 0.00 0.00 31 858.2
20260905120139 10 276 16.1 25.7 0.00 0.00 0.00 31 858.2
20260905120040 10 270 16.1 25.7 0.00 0.00 0.00 31 858.2
20260905115636 10 269 17.7 24.1 0.00 0.00 0.00 31 858.2
20260905115438 10 260 19.3 30.6 0.00 0.00 0.00 31 858.2
20260905115238 10 249 24.1 32.2 0.00 0.00 0.00 31 858.2
20260905115136 9 246 22.5 32.2 0.00 0.00 0.00 31 858.2
20260905115038 9 246 20.9 32.2 0.00 0.00 0.00 31 858.1
20260905114633 9 248 20.9 32.2 0.00 0.00 0.00 31 858.1
20260905114435 9 243 22.5 32.2 0.00 0.00 0.00 31 858.2
20260905114234 9 240 20.9 29.0 0.00 0.00 0.00 31 858.2
20260905114120 9 252 19.3 29.0 0.00 0.00 0.00 31 858.2
20260905114020 9 253 19.3 29.0 0.00 0.00 0.00 31 858.2
20260905113820 9 266 17.7 25.7 0.00 0.00 0.00 31 858.2
20260905113617 9 275 16.1 25.7 0.00 0.00 0.00 31 858.2
20260905113419 9 268 17.7 24.1 0.00 0.00 0.00 31 858.2
20260905113219 9 244 19.3 25.7 0.00 0.00 0.00 31 858.3
20260905113117 9 243 17.7 25.7 0.00 0.00 0.00 31 858.3
20260905113018 9 252 16.1 25.7 0.00 0.00 0.00 31 858.3
20260905112817 9 258 17.7 32.2 0.00 0.00 0.00 31 858.3
20260905112614 9 247 20.9 32.2 0.00 0.00 0.00 31 858.2
20260905112415 9 261 17.7 25.7 0.00 0.00 0.00 31 858.2
20260905112215 9 250 20.9 27.4 0.00 0.00 0.00 31 858.2
20260905112149 9 249 22.5 32.2 0.00 0.00 0.00 31 858.2
20260905112113 9 249 22.5 32.2 0.00 0.00 0.00 31 858.2
20260905112015 9 255 22.5 32.2 0.00 0.00 0.00 31 858.2
20260905111814 9 261 19.3 27.4 0.00 0.00 0.00 31 858.2
20260905111611 9 255 17.7 32.2 0.00 0.00 0.00 31 858.2
20260905111212 9 246 24.1 35.4 0.00 0.00 0.00 31 858.1
20260905111111 9 241 24.1 35.4 0.00 0.00 0.00 31 858.1
20260905111011 9 250 20.9 35.4 0.00 0.00 0.00 31 858.1
20260905110811 8 255 16.1 25.7 0.00 0.00 0.00 31 858.1
20260905110607 8 253 20.9 33.8 0.00 0.00 0.00 31 858.1
20260905110409 8 265 19.3 33.8 0.00 0.00 0.00 31 858.1
20260905110209 8 254 22.5 30.6 0.00 0.00 0.00 31 858.1
20260905110107 8 237 25.7 35.4 0.00 0.00 0.00 31 858.1
20260905110008 8 234 20.9 35.4 0.00 0.00 0.00 31 858.1
20260905105809 8 252 16.1 19.3 0.00 0.00 0.00 31 858.2
20260905105604 8 263 16.1 22.5 0.00 0.00 0.00 31 858.2
20260905105405 8 274 12.9 20.9 0.00 0.00 0.00 31 858.2
20260905105205 8 254 19.3 32.2 0.00 0.00 0.00 31 858.1
20260905105104 8 242 20.9 32.2 0.00 0.00 0.00 31 858.1
20260905105005 8 237 20.9 32.2 0.00 0.00 0.00 31 858.1
20260905104805 8 242 19.3 32.2 0.00 0.00 0.00 31 858.0
20260905104601 8 228 25.7 35.4 0.00 0.00 0.00 31 858.1
20260905104402 8 229 22.5 38.6 0.00 0.00 0.00 31 858.1
20260905104202 8 248 17.7 29.0 0.00 0.00 0.00 31 858.2
20260905104101 8 248 19.3 29.0 0.00 0.00 0.00 31 858.1
20260905104002 8 248 17.7 25.7 0.00 0.00 0.00 31 858.1
20260905103802 8 261 12.9 19.3 0.00 0.00 0.00 31 858.2
20260905103558 8 252 14.5 19.3 0.00 0.00 0.00 31 858.1
20260905103400 8 246 16.1 22.5 0.00 0.00 0.00 31 858.1
20260905103200 8 250 16.1 32.2 0.00 0.00 0.00 31 858.1
20260905103058 8 249 19.3 32.2 0.00 0.00 0.00 31 858.1
20260905102959 8 241 20.9 32.2 0.00 0.00 0.00 31 858.1
20260905102759 8 234 19.3 25.7 0.00 0.00 0.00 31 857.9
20260905102555 8 236 16.1 30.6 0.00 0.00 0.00 31 857.9
20260905102356 8 245 17.7 27.4 0.00 0.00 0.00 31 857.8
20260905102156 8 243 19.3 27.4 0.00 0.00 0.00 31 857.9
20260905102055 8 249 19.3 32.2 0.00 0.00 0.00 31 857.9
20260905101956 8 251 19.3 32.2 0.00 0.00 0.00 31 857.8
20260905101757 8 240 20.9 30.6 0.00 0.00 0.00 31 857.8
20260905101552 8 238 19.3 30.6 0.00 0.00 0.00 31 857.9
20260905101353 8 252 16.1 27.4 0.00 0.00 0.00 31 857.9
20260905101154 8 245 17.7 27.4 0.00 0.00 0.00 31 857.8
20260905101052 7 246 17.7 27.4 0.00 0.00 0.00 31 857.8
20260905100953 7 246 16.1 27.4 0.00 0.00 0.00 31 857.8
20260905100753 7 233 19.3 27.4 0.00 0.00 0.00 31 857.9
20260905100549 7 238 17.7 37.0 0.00 0.00 0.00 31 857.9
20260905100350 7 231 17.7 27.4 0.00 0.00 0.00 31 858.0
20260905100150 7 234 19.3 27.4 0.00 0.00 0.00 31 858.1
20260905100049 7 232 17.7 27.4 0.00 0.00 0.00 31 858.2
20260905095949 7 237 17.7 27.4 0.00 0.00 0.00 31 858.2
20260905095749 7 240 16.1 24.1 0.00 0.00 0.00 31 858.2
20260905095546 7 254 12.9 24.1 0.00 0.00 0.00 31 858.2
20260905095347 7 249 12.9 24.1 0.00 0.00 0.00 31 858.2
20260905095148 7 230 14.5 24.1 0.00 0.00 0.00 31 858.2
20260905095046 7 237 12.9 24.1 0.00 0.00 0.00 31 858.2
20260905094947 7 249 11.3 24.1 0.00 0.00 0.00 31 858.2
20260905094747 7 251 11.3 20.9 0.00 0.00 0.00 31 858.2
20260905094543 7 236 12.9 20.9 0.00 0.00 0.00 31 858.2
20260905094343 7 252 8.0 14.5 0.00 0.00 0.00 31 858.3
20260905094143 7 258 9.7 16.1 0.00 0.00 0.00 31 858.2
20260905094043 7 261 9.7 16.1 0.00 0.00 0.00 31 858.2
20260905093944 7 262 9.7 16.1 0.00 0.00 0.00 31 858.1
20260905093743 7 237 14.5 22.5 0.00 0.00 0.00 31 858.1
20260905093540 7 241 14.5 22.5 0.00 0.00 0.00 31 858.1
20260905093341 7 255 9.7 19.3 0.00 0.00 0.00 31 858.2
20260905093141 7 256 9.7 19.3 0.00 0.00 0.00 31 858.1
20260905093040 7 263 9.7 14.5 0.00 0.00 0.00 31 858.1
20260905092941 7 259 9.7 19.3 0.00 0.00 0.00 31 858.1
20260905092740 7 267 9.7 19.3 0.00 0.00 0.00 31 858.1
20260905092537 7 270 9.7 16.1 0.00 0.00 0.00 31 858.0
20260905092338 7 259 12.9 24.1 0.00 0.00 0.00 31 858.1
20260905092137 7 257 11.3 22.5 0.00 0.00 0.00 31 858.1
20260905092037 7 264 11.3 19.3 0.00 0.00 0.00 31 858.1
20260905091937 7 259 14.5 19.3 0.00 0.00 0.00 31 858.0
20260905091737 7 248 19.3 32.2 0.00 0.00 0.00 31 857.9
20260905091534 7 267 19.3 32.2 0.00 0.00 0.00 31 857.9
20260905091335 7 272 14.5 29.0 0.00 0.00 0.00 31 857.9
20260905091134 7 256 17.7 29.0 0.00 0.00 0.00 31 857.9
20260905091034 7 250 19.3 27.4 0.00 0.00 0.00 31 857.9
20260905090934 7 255 17.7 29.0 0.00 0.00 0.00 31 857.9
20260905090735 7 254 17.7 29.0 0.00 0.00 0.00 31 857.8
20260905090517 7 258 16.1 22.5 0.00 0.00 0.00 31 857.7
20260905090318 7 251 16.1 27.4 0.00 0.00 0.00 31 857.8
20260905090119 7 248 14.5 24.1 0.00 0.00 0.00 31 858.0
20260905090017 7 243 12.9 20.9 0.00 0.00 0.00 31 858.1
20260905085919 7 247 11.3 19.3 0.00 0.00 0.00 31 858.2
20260905085514 7 250 16.1 24.1 0.00 0.00 0.00 31 858.2
20260905085315 7 264 14.5 24.1 0.00 0.00 0.00 31 858.2
20260905085117 7 250 12.9 17.7 0.00 0.00 0.00 31 858.2
20260905085014 7 253 12.9 17.7 0.00 0.00 0.00 31 858.2
20260905084915 7 267 12.9 17.7 0.00 0.00 0.00 31 858.2
20260905084715 7 272 12.9 25.7 0.00 0.00 0.00 31 858.2
20260905084511 7 254 14.5 25.7 0.00 0.00 0.00 31 858.2
20260905084312 7 255 12.9 17.7 0.00 0.00 0.00 31 858.1
20260905084259 6 267 12.9 22.5 0.00 0.00 0.00 31 858.1
20260905084113 6 264 12.9 17.7 0.00 0.00 0.00 31 858.1
20260905084011 6 267 12.9 22.5 0.00 0.00 0.00 31 858.1
20260905083912 6 262 14.5 22.5 0.00 0.00 0.00 31 858.1
20260905083712 6 241 19.3 29.0 0.00 0.00 0.00 31 858.0
20260905083657 7 243 22.5 32.2 0.00 0.00 0.00 31 858.0
20260905083508 7 243 22.5 32.2 0.00 0.00 0.00 31 858.0
20260905083308 7 243 20.9 27.4 0.00 0.00 0.00 31 857.9
20260905083108 7 241 22.5 32.2 0.00 0.00 0.00 31 857.8
20260905083008 7 245 20.9 32.2 0.00 0.00 0.00 31 857.8
20260905082708 7 241 17.7 30.6 0.00 0.00 0.00 31 857.6
20260905082505 7 230 16.1 25.7 0.00 0.00 0.00 31 857.5
20260905082307 7 234 17.7 27.4 0.00 0.00 0.00 31 857.7
20260905082105 7 229 19.3 29.0 0.00 0.00 0.00 31 857.7
20260905082005 7 227 19.3 29.0 0.00 0.00 0.00 31 857.8
20260905081706 6 236 19.3 25.7 0.00 0.00 0.00 31 857.7
20260905081502 6 241 19.3 27.4 0.00 0.00 0.00 31 857.7
20260905081303 6 243 17.7 29.0 0.00 0.00 0.00 31 857.7
20260905081104 6 233 17.7 29.0 0.00 0.00 0.00 31 857.7
20260905081002 6 232 19.3 29.0 0.00 0.00 0.00 31 857.7
20260905080702 6 232 17.7 25.7 0.00 0.00 0.00 31 857.8
20260905080459 6 236 16.1 25.7 0.00 0.00 0.00 31 857.8
20260905080300 6 236 19.3 33.8 0.00 0.00 0.00 31 857.9
20260905080100 6 231 22.5 33.8 0.00 0.00 0.00 31 858.0
20260905075959 6 237 22.5 32.2 0.00 0.00 0.00 31 858.0
20260905075859 6 243 20.9 32.2 0.00 0.00 0.00 31 858.1
20260905075700 6 249 19.3 30.6 0.00 0.00 0.00 31 857.9
20260905075456 6 242 20.9 30.6 0.00 0.00 0.00 31 857.9
20260905075258 6 248 20.9 37.0 0.00 0.00 0.00 31 857.9
20260905075057 6 246 24.1 35.4 0.00 0.00 0.00 31 858.0
20260905074956 6 244 24.1 35.4 0.00 0.00 0.00 31 858.0
20260905074657 6 254 25.7 35.4 0.00 0.00 0.00 31 857.9
20260905074453 6 253 25.7 37.0 0.00 0.00 0.00 31 858.0
20260905074253 7 264 19.3 32.2 0.00 0.00 0.00 31 858.0
20260905074054 7 260 22.5 35.4 0.00 0.00 0.00 31 858.0
20260905073953 7 261 22.5 35.4 0.00 0.00 0.00 31 858.0
20260905073854 7 269 20.9 35.4 0.00 0.00 0.00 31 858.0
20260905073655 7 269 16.1 20.9 0.00 0.00 0.00 31 858.0
20260905073450 7 270 17.7 24.1 0.00 0.00 0.00 31 858.0
20260905073251 7 271 22.5 33.8 0.00 0.00 0.00 31 857.8
20260905072950 7 268 22.5 40.2 0.00 0.00 0.00 31 857.4
20260905072852 7 276 20.9 32.2 0.00 0.00 0.00 31 857.4
20260905072650 7 267 22.5 29.0 0.00 0.00 0.00 31 857.3
20260905072447 7 261 24.1 38.6 0.00 0.00 0.00 31 857.2
20260905072248 7 249 25.7 38.6 0.00 0.00 0.00 31 857.3
20260905072047 7 258 22.5 29.0 0.00 0.00 0.00 31 857.5
20260905071947 7 264 22.5 30.6 0.00 0.00 0.00 31 857.4
20260905071847 7 267 20.9 30.6 0.00 0.00 0.00 31 857.4
20260905071647 7 248 25.7 32.2 0.00 0.00 0.00 31 857.4
20260905071443 7 232 25.7 35.4 0.00 0.00 0.00 31 857.3
20260905071245 7 236 24.1 32.2 0.00 0.00 0.00 31 857.3
20260905071045 7 244 24.1 32.2 0.00 0.00 0.00 31 857.4
20260905070943 7 238 24.1 32.2 0.00 0.00 0.00 31 857.3
20260905070844 7 231 22.5 32.2 0.00 0.00 0.00 31 857.3
20260905070644 7 238 19.3 29.0 0.00 0.00 0.00 31 857.2
20260905070440 7 238 20.9 30.6 0.00 0.00 0.00 31 857.2
20260905070241 7 240 17.7 24.1 0.00 0.00 0.00 31 857.2
20260905070041 7 242 16.1 22.5 0.00 0.00 0.00 31 857.1
20260905065940 7 245 16.1 22.5 0.00 0.00 0.00 31 857.1
20260905065841 7 243 17.7 25.7 0.00 0.00 0.00 31 857.1
20260905065641 7 237 19.3 29.0 0.00 0.00 0.00 31 857.2
20260905065441 7 240 17.7 30.6 0.00 0.00 0.00 31 857.2
20260905065238 7 239 20.9 30.6 0.00 0.00 0.00 31 857.1
20260905065038 7 232 20.9 30.6 0.00 0.00 0.00 31 857.2
20260905064937 7 225 19.3 25.7 0.00 0.00 0.00 31 857.2
20260905064838 7 233 19.3 25.7 0.00 0.00 0.00 31 857.2
20260905064639 7 244 17.7 22.5 0.00 0.00 0.00 31 857.2
20260905064434 7 233 17.7 29.0 0.00 0.00 0.00 31 857.1
20260905064232 7 232 20.9 29.0 0.00 0.00 0.00 31 857.1
20260905064032 7 237 19.3 27.4 0.00 0.00 0.00 31 857.1
20260905063931 7 239 19.3 27.4 0.00 0.00 0.00 31 857.1
20260905063831 7 242 20.9 27.4 0.00 0.00 0.00 31 857.1
20260905063632 7 254 17.7 25.7 0.00 0.00 0.00 31 857.1
20260905063432 7 270 16.1 27.4 0.00 0.00 0.00 31 857.2
20260905063228 7 243 19.3 27.4 0.00 0.00 0.00 31 857.2
20260905063028 7 243 20.9 32.2 0.00 0.00 0.00 31 857.3
20260905062915 7 246 22.5 32.2 0.00 0.00 0.00 31 857.4
20260905062816 7 239 20.9 27.4 0.00 0.00 0.00 31 857.4
20260905062616 7 248 17.7 27.4 0.00 0.00 0.00 31 857.5
20260905062412 7 261 19.3 25.7 0.00 0.00 0.00 31 857.6
20260905062013 7 266 22.5 30.6 0.00 0.00 0.00 31 857.4
20260905061912 7 264 22.5 32.2 0.00 0.00 0.00 31 857.4
20260905061812 7 262 20.9 32.2 0.00 0.00 0.00 31 857.4
20260905061622 7 267 19.3 29.0 0.00 0.00 0.00 31 857.4
20260905061409 7 258 20.9 29.0 0.00 0.00 0.00 31 857.4
20260905061210 7 262 20.9 29.0 0.00 0.00 0.00 31 857.4
20260905061010 7 265 19.3 29.0 0.00 0.00 0.00 31 857.4
20260905060909 7 266 19.3 25.7 0.00 0.00 0.00 31 857.4
20260905060810 7 260 20.9 29.0 0.00 0.00 0.00 31 857.4
20260905060609 7 247 22.5 29.0 0.00 0.00 0.00 31 857.6
20260905060406 7 253 22.5 29.0 0.00 0.00 0.00 31 857.7
20260905060207 7 246 24.1 37.0 0.00 0.00 0.00 31 857.7
20260905060008 7 265 22.5 37.0 0.00 0.00 0.00 31 857.7
20260905055906 7 272 19.3 29.0 0.00 0.00 0.00 31 857.7
20260905055808 7 274 17.7 27.4 0.00 0.00 0.00 31 857.7
20260905055607 7 258 19.3 24.1 0.00 0.00 0.00 31 857.5
20260905055403 7 263 22.5 29.0 0.00 0.00 0.00 31 857.3
20260905055204 7 266 25.7 37.0 0.00 0.00 0.00 31 857.1
20260905055004 7 259 30.6 45.1 0.00 0.00 0.00 31 857.0
20260905054903 7 263 29.0 45.1 0.00 0.00 0.00 31 857.0
20260905054803 7 261 25.7 40.2 0.00 0.00 0.00 31 857.1
20260905054605 7 259 24.1 33.8 0.00 0.00 0.00 31 857.1
20260905054359 7 265 22.5 33.8 0.00 0.00 0.00 31 857.2
20260905054201 7 267 29.0 45.1 0.00 0.00 0.00 31 857.2
20260905054000 7 269 29.0 45.1 0.00 0.00 0.00 31 857.2
20260905053859 7 276 27.4 38.6 0.00 0.00 0.00 31 857.2
20260905053800 7 269 27.4 38.6 0.00 0.00 0.00 31 857.1
20260905053600 7 269 25.7 38.6 0.00 0.00 0.00 31 857.1
20260905053355 7 270 27.4 37.0 0.00 0.00 0.00 31 857.0
20260905053157 7 272 30.6 38.6 0.00 0.00 0.00 31 856.9
20260905052855 7 276 24.1 35.4 0.00 0.00 0.00 31 856.8
20260905052757 7 278 24.1 27.4 0.00 0.00 0.00 31 856.8
20260905052557 7 280 24.1 30.6 0.00 0.00 0.00 31 856.8
20260905052353 7 276 27.4 38.6 0.00 0.00 0.00 31 856.9
20260905052153 7 269 29.0 38.6 0.00 0.00 0.00 31 856.9
20260905051954 7 263 25.7 38.6 0.00 0.00 0.00 31 856.8
20260905051852 7 263 22.5 29.0 0.00 0.00 0.00 31 856.8
20260905051753 7 269 22.5 30.6 0.00 0.00 0.00 31 856.8
20260905051553 7 279 25.7 32.2 0.00 0.00 0.00 31 856.7
20260905051349 7 265 24.1 32.2 0.00 0.00 0.00 31 856.7
20260905051151 7 268 22.5 32.2 0.00 0.00 0.00 31 856.6
20260905050950 7 267 22.5 33.8 0.00 0.00 0.00 31 856.8
20260905050849 7 262 24.1 33.8 0.00 0.00 0.00 31 856.9
20260905050750 7 263 24.1 33.8 0.00 0.00 0.00 31 857.0
20260905050551 7 263 29.0 45.1 0.00 0.00 0.00 31 857.0
20260905050346 7 254 35.4 45.1 0.00 0.00 0.00 31 857.0
20260905050148 7 255 32.2 48.3 0.00 0.00 0.00 31 857.0
20260905045846 7 264 29.0 41.8 0.00 0.00 0.00 31 857.0
20260905045758 7 265 29.0 41.8 0.00 0.00 0.00 31 856.9
20260905045548 7 270 25.7 35.4 0.00 0.00 0.00 31 856.8
20260905045343 7 264 24.1 35.4 0.00 0.00 0.00 31 856.7
20260905044945 7 275 22.5 37.0 0.00 0.00 0.00 31 856.7
20260905044844 7 273 22.5 30.6 0.00 0.00 0.00 31 856.6
20260905044745 7 269 22.5 30.6 0.00 0.00 0.00 31 856.7
20260905044341 7 271 20.9 29.0 0.00 0.00 0.00 31 856.8
20260905044141 7 270 22.5 32.2 0.00 0.00 0.00 31 856.7
20260905043940 7 268 19.3 25.7 0.00 0.00 0.00 31 856.8
20260905043840 7 264 19.3 22.5 0.00 0.00 0.00 31 856.8
20260905043739 7 275 19.3 25.7 0.00 0.00 0.00 31 856.8
20260905043540 7 284 20.9 30.6 0.00 0.00 0.00 31 856.9
20260905043336 7 274 20.9 27.4 0.00 0.00 0.00 31 856.9
20260905043137 7 280 19.3 27.4 0.00 0.00 0.00 31 856.8
20260905042937 7 279 22.5 29.0 0.00 0.00 0.00 31 856.8
20260905042836 8 268 25.7 38.6 0.00 0.00 0.00 31 856.8
20260905042737 8 275 24.1 38.6 0.00 0.00 0.00 31 856.8
20260905042537 8 277 24.1 33.8 0.00 0.00 0.00 31 856.7
20260905042333 8 262 29.0 38.6 0.00 0.00 0.00 31 856.7
20260905041833 8 272 29.0 46.7 0.00 0.00 0.00 31 856.6
20260905041734 8 271 29.0 46.7 0.00 0.00 0.00 31 856.7
20260905041534 9 270 27.4 35.4 0.00 0.00 0.00 31 856.6
20260905041330 8 269 22.5 30.6 0.00 0.00 0.00 31 856.5
20260905041131 8 273 22.5 35.4 0.00 0.00 0.00 31 856.5
20260905040931 8 272 24.1 35.4 0.00 0.00 0.00 31 856.4
20260905040830 8 266 24.1 32.2 0.00 0.00 0.00 31 856.4
20260905040731 8 262 25.7 35.4 0.00 0.00 0.00 31 856.4
20260905040531 8 259 22.5 35.4 0.00 0.00 0.00 31 856.3
20260905040327 8 259 22.5 32.2 0.00 0.00 0.00 31 856.3
20260905040129 8 261 20.9 30.6 0.00 0.00 0.00 31 856.3
20260905035929 8 263 22.5 29.0 0.00 0.00 0.00 31 856.4
20260905035827 8 266 22.5 29.0 0.00 0.00 0.00 31 856.4
20260905035727 8 264 22.5 29.0 0.00 0.00 0.00 31 856.4
20260905035527 8 263 22.5 32.2 0.00 0.00 0.00 31 856.3
20260905035311 8 260 22.5 35.4 0.00 0.00 0.00 31 856.3
20260905035112 8 261 20.9 35.4 0.00 0.00 0.00 31 856.3
20260905034911 8 266 17.7 22.5 0.00 0.00 0.00 31 856.3
20260905034811 8 261 19.3 22.5 0.00 0.00 0.00 31 856.3
20260905034711 8 257 17.7 25.7 0.00 0.00 0.00 31 856.4
20260905034511 8 263 19.3 27.4 0.00 0.00 0.00 31 856.4
20260905034307 8 252 20.9 27.4 0.00 0.00 0.00 31 856.4
20260905034109 8 252 20.9 27.4 0.00 0.00 0.00 31 856.3
20260905033807 8 265 20.9 37.0 0.00 0.00 0.00 31 856.2
20260905033709 8 271 17.7 22.5 0.00 0.00 0.00 31 856.3
20260905033509 8 271 16.1 22.5 0.00 0.00 0.00 31 856.3
20260905033304 8 269 19.3 32.2 0.00 0.00 0.00 31 856.3
20260905032906 8 270 19.3 29.0 0.00 0.00 0.00 31 856.5
20260905032804 8 272 19.3 29.0 0.00 0.00 0.00 31 856.5
20260905032705 8 265 20.9 29.0 0.00 0.00 0.00 31 856.6
20260905032506 8 267 20.9 29.0 0.00 0.00 0.00 31 856.7
20260905032305 8 278 22.5 33.8 0.00 0.00 0.00 31 856.7
20260905032102 8 270 27.4 37.0 0.00 0.00 0.00 31 856.6
20260905031902 8 259 27.4 37.0 0.00 0.00 0.00 31 856.6
20260905031802 8 265 27.4 35.4 0.00 0.00 0.00 31 856.6
20260905031702 8 265 27.4 35.4 0.00 0.00 0.00 31 856.6
20260905031502 8 271 25.7 30.6 0.00 0.00 0.00 31 856.6
20260905031259 8 267 27.4 38.6 0.00 0.00 0.00 31 856.5
20260905031059 8 270 24.1 38.6 0.00 0.00 0.00 31 856.5
20260905030959 8 267 20.9 30.6 0.00 0.00 0.00 31 856.5
20260905030900 8 268 22.5 30.6 0.00 0.00 0.00 31 856.5
20260905030758 8 267 20.9 30.6 0.00 0.00 0.00 31 856.5
20260905030659 8 267 19.3 29.0 0.00 0.00 0.00 31 856.5
20260905030500 8 261 20.9 30.6 0.00 0.00 0.00 31 856.6
20260905030255 8 275 20.9 27.4 0.00 0.00 0.00 31 856.5
20260905030057 8 270 20.9 32.2 0.00 0.00 0.00 31 856.5
20260905025857 8 269 20.9 32.2 0.00 0.00 0.00 31 856.4
20260905025755 8 273 19.3 29.0 0.00 0.00 0.00 31 856.4
20260905025656 8 275 22.5 32.2 0.00 0.00 0.00 31 856.4
20260905025456 8 278 24.1 33.8 0.00 0.00 0.00 31 856.4
20260905025252 8 277 19.3 27.4 0.00 0.00 0.00 31 856.5
20260905025053 8 282 17.7 27.4 0.00 0.00 0.00 31 856.6
20260905024853 8 279 16.1 25.7 0.00 0.00 0.00 31 856.5
20260905024752 8 285 16.1 25.7 0.00 0.00 0.00 31 856.5
20260905024654 8 287 16.1 25.7 0.00 0.00 0.00 31 856.5
20260905024453 8 278 19.3 29.0 0.00 0.00 0.00 31 856.4
20260905024249 8 281 25.7 37.0 0.00 0.00 0.00 31 856.3
20260905024051 8 290 19.3 29.0 0.00 0.00 0.00 31 856.4
20260905023851 8 291 19.3 27.4 0.00 0.00 0.00 31 856.5
20260905023749 8 285 19.3 27.4 0.00 0.00 0.00 31 856.5
20260905023650 8 286 20.9 40.2 0.00 0.00 0.00 31 856.6
20260905023450 8 271 25.7 40.2 0.00 0.00 0.00 31 856.7
20260905023246 8 284 24.1 35.4 0.00 0.00 0.00 31 856.7
20260905023047 8 292 20.9 30.6 0.00 0.00 0.00 31 856.6
20260905022847 8 276 29.0 45.1 0.00 0.00 0.00 31 856.7
20260905022746 8 273 30.6 45.1 0.00 0.00 0.00 31 856.7
20260905022647 8 276 30.6 45.1 0.00 0.00 0.00 31 856.7
20260905022447 8 285 29.0 33.8 0.00 0.00 0.00 31 856.8
20260905022243 8 290 25.7 35.4 0.00 0.00 0.00 31 856.7
20260905022044 8 285 20.9 33.8 0.00 0.00 0.00 31 856.5
20260905021844 8 280 22.5 33.8 0.00 0.00 0.00 31 856.6
20260905021743 8 288 20.9 25.7 0.00 0.00 0.00 31 856.6
20260905021643 8 292 22.5 30.6 0.00 0.00 0.00 31 856.6
20260905021443 8 300 24.1 30.6 0.00 0.00 0.00 31 856.7
20260905021240 8 291 22.5 40.2 0.00 0.00 0.00 31 856.7
20260905021041 8 295 24.1 30.6 0.00 0.00 0.00 31 856.7
20260905020841 8 290 22.5 30.6 0.00 0.00 0.00 31 856.7
20260905020740 8 288 20.9 29.0 0.00 0.00 0.00 31 856.7
20260905020641 8 289 19.3 29.0 0.00 0.00 0.00 31 856.7
20260905020441 8 289 20.9 29.0 0.00 0.00 0.00 31 856.7
20260905020237 8 281 25.7 40.2 0.00 0.00 0.00 31 856.6
20260905020038 8 284 19.3 29.0 0.00 0.00 0.00 31 856.6
20260905015838 8 296 22.5 35.4 0.00 0.00 0.00 31 856.7
20260905015737 8 293 22.5 35.4 0.00 0.00 0.00 31 856.7
20260905015638 8 301 17.7 25.7 0.00 0.00 0.00 31 856.7
20260905015438 8 297 19.3 27.4 0.00 0.00 0.00 31 856.8
20260905015234 8 284 20.9 29.0 0.00 0.00 0.00 31 856.8
20260905015034 8 288 20.9 29.0 0.00 0.00 0.00 31 856.7
20260905014835 8 282 25.7 38.6 0.00 0.00 0.00 31 856.7
20260905014734 8 293 25.7 38.6 0.00 0.00 0.00 31 856.6
20260905014634 8 300 24.1 35.4 0.00 0.00 0.00 31 856.6
20260905014435 8 284 22.5 33.8 0.00 0.00 0.00 31 856.6
20260905014231 8 280 20.9 29.0 0.00 0.00 0.00 31 856.6
20260905014033 8 289 19.3 27.4 0.00 0.00 0.00 31 856.6
20260905013834 8 290 17.7 22.5 0.00 0.00 0.00 31 856.6
20260905013731 8 290 16.1 22.5 0.00 0.00 0.00 31 856.6
20260905013633 8 282 16.1 22.5 0.00 0.00 0.00 31 856.6
20260905013432 8 285 16.1 22.5 0.00 0.00 0.00 31 856.6
20260905013228 9 295 14.5 20.9 0.00 0.00 0.00 31 856.6
20260905013028 9 297 12.9 20.9 0.00 0.00 0.00 31 856.6
20260905012830 9 290 14.5 20.9 0.00 0.00 0.00 31 856.6
20260905012728 9 286 16.1 20.9 0.00 0.00 0.00 31 856.6
20260905012629 9 272 16.1 22.5 0.00 0.00 0.00 31 856.6
20260905012429 9 275 14.5 22.5 0.00 0.00 0.00 31 856.6
20260905012225 9 290 12.9 19.3 0.00 0.00 0.00 31 856.7
20260905012025 9 283 14.5 19.3 0.00 0.00 0.00 31 856.6
20260905011825 9 269 16.1 22.5 0.00 0.00 0.00 31 856.5
20260905011712 9 264 16.1 24.1 0.00 0.00 0.00 31 856.6
20260905011613 9 261 19.3 24.1 0.00 0.00 0.00 31 856.6
20260905011414 9 268 17.7 24.1 0.00 0.00 0.00 31 856.6
20260905011209 10 293 14.5 17.7 0.00 0.00 0.00 31 856.6
20260905011010 10 290 16.1 25.7 0.00 0.00 0.00 31 856.6
20260905010709 10 290 12.9 19.3 0.00 0.00 0.00 31 856.5
20260905010610 10 308 11.3 17.7 0.00 0.00 0.00 31 856.4
20260905010410 10 305 12.9 22.5 0.00 0.00 0.00 31 856.3
20260905010206 10 277 12.9 22.5 0.00 0.00 0.00 31 856.3
20260905010007 10 286 14.5 19.3 0.00 0.00 0.00 31 856.3
20260905005706 10 321 12.9 16.1 0.00 0.00 0.00 31 856.3
20260905005607 10 317 11.3 16.1 0.00 0.00 0.00 31 856.3
20260905005407 10 291 9.7 16.1 0.00 0.00 0.00 31 856.3
20260905005202 10 283 11.3 16.1 0.00 0.00 0.00 31 856.2
20260905005004 10 279 12.9 19.3 0.00 0.00 0.00 31 856.1
20260905004803 10 297 11.3 16.1 0.00 0.00 0.00 31 856.1
20260905004702 10 295 11.3 12.9 0.00 0.00 0.00 31 856.1
20260905004404 11 284 11.3 14.5 0.00 0.00 0.00 31 856.2
20260905004159 11 277 12.9 14.5 0.00 0.00 0.00 31 856.1
20260905003801 11 289 11.3 16.1 0.00 0.00 0.00 31 856.0
20260905003659 11 281 11.3 16.1 0.00 0.00 0.00 31 856.0
20260905003600 11 273 11.3 16.1 0.00 0.00 0.00 31 856.0
20260905003157 11 276 11.3 16.1 0.00 0.00 0.00 31 855.9
20260905002958 11 265 11.3 16.1 0.00 0.00 0.00 31 855.9
20260905002758 11 262 12.9 17.7 0.00 0.00 0.00 31 856.0
20260905002657 11 266 12.9 17.7 0.00 0.00 0.00 31 856.0
20260905002558 11 270 12.9 17.7 0.00 0.00 0.00 31 856.0
20260905002358 11 280 11.3 16.1 0.00 0.00 0.00 31 855.9
20260905002154 11 260 12.9 19.3 0.00 0.00 0.00 31 855.9
20260905001954 11 262 12.9 19.3 0.00 0.00 0.00 31 855.9
20260905001755 12 272 12.9 19.3 0.00 0.00 0.00 31 855.9
20260905001654 12 273 12.9 16.1 0.00 0.00 0.00 31 855.9
20260905001555 12 272 11.3 16.1 0.00 0.00 0.00 31 855.9
20260905001355 12 266 12.9 16.1 0.00 0.00 0.00 31 855.8
20260905001150 12 270 12.9 19.3 0.00 0.00 0.00 31 855.8
20260905000952 13 276 12.9 19.3 0.00 0.00 0.00 31 855.7
20260905000751 13 272 12.9 17.7 0.00 0.00 0.00 31 855.7
20260905000651 13 274 12.9 17.7 0.00 0.00 0.00 31 855.6
20260905000552 13 277 12.9 16.1 0.00 0.00 0.00 31 855.6
20260905000148 13 271 14.5 22.5 0.00 0.00 0.00 31 855.5
20260904235949 13 258 12.9 17.7 0.00 0.00 0.00 31 855.5
20260904235748 14 253 12.9 19.3 0.00 0.00 0.00 31 855.5
20260904235648 14 256 14.5 22.5 0.00 0.00 0.00 31 855.5
20260904235548 14 255 16.1 22.5 0.00 0.00 0.00 31 855.4
20260904235349 14 267 17.7 30.6 0.00 0.00 0.00 31 855.4
20260904235145 14 258 22.5 40.2 0.00 0.00 0.00 31 855.3
20260904234946 13 262 20.9 32.2 0.00 0.00 0.00 31 855.3
20260904234747 13 256 20.9 27.4 0.00 0.00 0.00 31 855.2
20260904234645 13 246 22.5 33.8 0.00 0.00 0.00 31 855.2
20260904234546 13 245 24.1 33.8 0.00 0.00 0.00 31 855.1
20260904234345 13 240 19.3 29.0 0.00 0.00 0.00 31 855.2
20260904234142 13 232 20.9 27.4 0.00 0.00 0.00 31 855.1
20260904233942 13 228 20.9 32.2 0.00 0.00 0.00 31 855.1
20260904233742 13 232 19.3 32.2 0.00 0.00 0.00 31 855.0
20260904233642 13 231 19.3 29.0 0.00 0.00 0.00 31 855.0
20260904233541 13 235 19.3 27.4 0.00 0.00 0.00 31 855.0
20260904233341 13 231 19.3 25.7 0.00 0.00 0.00 31 855.0
20260904233138 13 226 19.3 29.0 0.00 0.00 0.00 31 855.0
20260904232940 13 232 17.7 24.1 0.00 0.00 0.00 31 855.0
20260904232740 13 233 19.3 29.0 0.00 0.00 0.00 31 855.0
20260904232638 13 236 19.3 29.0 0.00 0.00 0.00 31 854.9
20260904232540 13 241 19.3 29.0 0.00 0.00 0.00 31 854.9
20260904232339 13 231 19.3 29.0 0.00 0.00 0.00 31 854.8
20260904232135 13 224 20.9 25.7 0.00 0.00 0.00 31 854.8
20260904231937 13 223 19.3 32.2 0.00 0.00 0.00 31 854.8
20260904231736 13 229 22.5 38.6 0.00 0.00 0.00 31 854.8
20260904231635 14 231 20.9 38.6 0.00 0.00 0.00 31 854.8
20260904231536 14 227 20.9 29.0 0.00 0.00 0.00 31 854.8
20260904231336 14 228 22.5 29.0 0.00 0.00 0.00 31 854.8
20260904231132 14 233 22.5 33.8 0.00 0.00 0.00 31 854.7
20260904230933 14 228 24.1 33.8 0.00 0.00 0.00 31 854.8
20260904230733 14 230 22.5 35.4 0.00 0.00 0.00 31 854.8
20260904230632 14 225 22.5 35.4 0.00 0.00 0.00 31 854.8
20260904230533 14 227 24.1 35.4 0.00 0.00 0.00 31 854.8
20260904230333 14 222 22.5 30.6 0.00 0.00 0.00 31 854.8
20260904230129 14 224 22.5 29.0 0.00 0.00 0.00 31 854.8
20260904225930 14 222 22.5 35.4 0.00 0.00 0.00 31 854.8
20260904225730 14 228 24.1 32.2 0.00 0.00 0.00 31 854.8
20260904225629 14 226 22.5 32.2 0.00 0.00 0.00 31 854.8
20260904225530 14 228 22.5 33.8 0.00 0.00 0.00 31 854.8
20260904225330 14 229 25.7 35.4 0.00 0.00 0.00 31 854.8
20260904225126 14 228 22.5 35.4 0.00 0.00 0.00 31 854.8
20260904224928 14 223 22.5 33.8 0.00 0.00 0.00 31 854.8
20260904224727 14 223 24.1 30.6 0.00 0.00 0.00 31 854.8
20260904224626 14 226 22.5 30.6 0.00 0.00 0.00 31 854.8
20260904224528 14 225 24.1 30.6 0.00 0.00 0.00 31 854.8
20260904224328 14 228 25.7 30.6 0.00 0.00 0.00 31 854.9
20260904224110 14 227 24.1 38.6 0.00 0.00 0.00 31 854.9
20260904223912 14 219 25.7 41.8 0.00 0.00 0.00 31 854.9
20260904223712 14 217 27.4 41.8 0.00 0.00 0.00 31 854.9
20260904223610 14 223 22.5 32.2 0.00 0.00 0.00 31 854.9
20260904223511 14 226 19.3 30.6 0.00 0.00 0.00 31 854.9
20260904223107 14 225 22.5 30.6 0.00 0.00 0.00 31 854.9
20260904222908 14 225 19.3 27.4 0.00 0.00 0.00 31 854.9
20260904222708 14 215 24.1 33.8 0.00 0.00 0.00 31 854.8
20260904222607 14 220 24.1 33.8 0.00 0.00 0.00 31 854.8
20260904222507 14 218 24.1 33.8 0.00 0.00 0.00 31 854.8
20260904222308 15 217 24.1 30.6 0.00 0.00 0.00 31 854.9
20260904222104 15 215 27.4 43.5 0.00 0.00 0.00 31 854.9
20260904221905 15 215 25.7 37.0 0.00 0.00 0.00 31 854.9
20260904221716 15 216 25.7 37.0 0.00 0.00 0.00 31 855.0
20260904221604 15 216 22.5 37.0 0.00 0.00 0.00 31 855.0
20260904221505 15 214 20.9 30.6 0.00 0.00 0.00 31 855.0
20260904221101 14 222 20.9 33.8 0.00 0.00 0.00 31 855.0
20260904220902 14 224 19.3 33.8 0.00 0.00 0.00 31 855.0
20260904220702 14 221 19.3 29.0 0.00 0.00 0.00 31 855.1
20260904220601 14 214 19.3 29.0 0.00 0.00 0.00 31 855.1
20260904220501 14 215 19.3 29.0 0.00 0.00 0.00 31 855.1
20260904220301 14 217 20.9 41.8 0.00 0.00 0.00 31 855.1
20260904220058 14 218 19.3 27.4 0.00 0.00 0.00 31 855.1
20260904215859 14 224 22.5 32.2 0.00 0.00 0.00 31 855.0
20260904215659 14 216 20.9 32.2 0.00 0.00 0.00 31 855.0
20260904215558 14 216 24.1 35.4 0.00 0.00 0.00 31 854.9
20260904215459 14 217 24.1 35.4 0.00 0.00 0.00 31 854.9
20260904215258 14 220 24.1 35.4 0.00 0.00 0.00 31 854.9
20260904215055 14 216 24.1 35.4 0.00 0.00 0.00 31 854.9
20260904214856 14 222 22.5 43.5 0.00 0.00 0.00 31 854.9
20260904214656 14 209 25.7 43.5 0.00 0.00 0.00 31 854.8
20260904214555 14 217 24.1 33.8 0.00 0.00 0.00 31 854.8
20260904214455 14 221 24.1 41.8 0.00 0.00 0.00 31 854.7
20260904214256 14 218 19.3 41.8 0.00 0.00 0.00 31 854.7
20260904214051 14 225 22.5 33.8 0.00 0.00 0.00 31 854.6
20260904213853 14 213 24.1 32.2 0.00 0.00 0.00 31 854.5
20260904213552 14 208 25.7 49.9 0.00 0.00 0.00 31 854.5
20260904213453 14 210 27.4 53.1 0.00 0.00 0.00 31 854.6
20260904213252 14 206 27.4 53.1 0.00 0.00 0.00 31 854.9
20260904213049 14 213 27.4 41.8 0.00 0.00 0.00 31 855.0
20260904212850 14 220 24.1 35.4 0.00 0.00 0.00 31 855.1
20260904212649 14 215 24.1 35.4 0.00 0.00 0.00 31 855.0
20260904212549 14 214 24.1 35.4 0.00 0.00 0.00 31 855.0
20260904212249 14 210 25.7 33.8 0.00 0.00 0.00 31 855.0
20260904212046 14 218 24.1 35.4 0.00 0.00 0.00 31 855.0
20260904211847 14 216 22.5 35.4 0.00 0.00 0.00 31 855.0
20260904211647 14 214 22.5 33.8 0.00 0.00 0.00 31 855.1
20260904211546 14 223 24.1 33.8 0.00 0.00 0.00 31 855.1
20260904211447 14 219 24.1 38.6 0.00 0.00 0.00 31 855.1
20260904211247 14 213 24.1 38.6 0.00 0.00 0.00 31 855.1
20260904211043 14 212 22.5 35.4 0.00 0.00 0.00 31 855.1
20260904210843 14 218 24.1 38.6 0.00 0.00 0.00 31 855.1
20260904210643 14 222 24.1 38.6 0.00 0.00 0.00 31 855.1
20260904210543 14 219 22.5 35.4 0.00 0.00 0.00 31 855.1
20260904210245 14 220 24.1 46.7 0.00 0.00 0.00 31 855.1
20260904210040 14 214 22.5 38.6 0.00 0.00 0.00 31 855.1
20260904205841 14 207 27.4 43.5 0.00 0.00 0.00 31 855.0
20260904205641 14 206 24.1 43.5 0.00 0.00 0.00 31 855.1
20260904205540 14 220 20.9 38.6 0.00 0.00 0.00 31 855.1
20260904205241 14 222 20.9 33.8 0.00 0.00 0.00 31 855.0
20260904205037 14 216 25.7 48.3 0.00 0.00 0.00 31 854.9
20260904204837 14 219 25.7 40.2 0.00 0.00 0.00 31 854.9
20260904204638 14 218 24.1 35.4 0.00 0.00 0.00 31 855.0
20260904204537 14 222 22.5 35.4 0.00 0.00 0.00 31 855.1
20260904204437 14 231 20.9 30.6 0.00 0.00 0.00 31 855.1
20260904204237 14 224 24.1 40.2 0.00 0.00 0.00 31 855.0
20260904204034 13 219 25.7 37.0 0.00 0.00 0.00 31 855.0
20260904203836 13 216 22.5 32.2 0.00 0.00 0.00 31 855.1
20260904203534 13 216 22.5 37.0 0.00 0.00 0.00 31 855.2
20260904203235 13 227 22.5 41.8 0.00 0.00 0.00 31 855.3
20260904203031 13 223 22.5 35.4 0.00 0.00 0.00 31 855.4
20260904202832 13 227 22.5 40.2 0.00 0.00 0.00 31 855.4
20260904202632 14 228 22.5 30.6 0.00 0.00 0.00 31 855.4
20260904202531 14 221 24.1 37.0 0.00 0.00 0.00 31 855.4
20260904202432 14 222 25.7 37.0 0.00 0.00 0.00 31 855.3
20260904202231 14 225 25.7 37.0 0.00 0.00 0.00 31 855.2
20260904202028 14 229 25.7 40.2 0.00 0.00 0.00 31 855.2
20260904201826 14 224 25.7 41.8 0.00 0.00 0.00 31 855.2
20260904201627 14 220 27.4 41.8 0.00 0.00 0.00 31 855.2
20260904201525 14 221 25.7 38.6 0.00 0.00 0.00 31 855.2
20260904201427 14 222 24.1 37.0 0.00 0.00 0.00 31 855.2
20260904201226 14 220 25.7 37.0 0.00 0.00 0.00 31 855.2
20260904201022 14 212 25.7 35.4 0.00 0.00 0.00 31 855.2
20260904200822 14 216 27.4 40.2 0.00 0.00 0.00 31 855.2
20260904200509 14 223 29.0 48.3 0.00 0.00 0.00 31 855.2
20260904200411 14 225 27.4 48.3 0.00 0.00 0.00 31 855.2
20260904200210 14 228 24.1 32.2 0.00 0.00 0.00 31 855.3
20260904200006 14 232 24.1 43.5 0.00 0.00 0.00 31 855.3
20260904195807 14 227 25.7 37.0 0.00 0.00 0.00 31 855.3